Location: Canazei
(46.4667°N, 11.7667°E)
Time: 17:41:47
(UTC+00:00)

Cosmos 1538 Rocket - Pass Details

Date: 21 April 2021
Orbit: 751 x 793 km, 74.0° (Epoch: 12 May)

Event Time Altitude Azimuth Distance (km) Brightness Sun altitude
Rises 00:10:27 0° 339° (NNW) 3,301 8.0 -30.2°
Reaches altitude 10° 00:12:53 10° 342° (NNW) 2,369 7.2 -30.1°
Enters shadow 00:17:43 66° 24° (NNE) 868 4.3 -29.8°
